SCP
0 0 0 0 0 0 0 0 0 0 0 0 0 0 0 0 0 0 0 0 0 0 0 0 0 0 0 0 0 0 0 0 0 0 0 0 0 0 0 0 0 0 0 0
0 0 0 0 0 0 0 0 0 0 0 0 0 0 0 0 0 0 0 0 0 0 0 0 0 0 0 0 0 0 0 0 0 0 0 0 0 0 0 0 0 0 0 0
0 0 0 0 0 0 0 0 0 0 0 0 0 0 0 0 0 0 0 0 0 0 0 0 0 0 0 0 0 0 0 0 0 0 0 0 0 0 0 0 0 0 0 0
0 0 0 0 0 0 0 0 0 0 0 0 0 0 0 0 0 0 0 0 0 0 0 0 0 0 0 0 0 0 0 0 0 0 0 0 0 0 0 0 0 0 0 0
0 0 0 0 0 0 0 0 0 0 0 0 0 0 0 0 0 0 0 0 0 0 0 0 0 0 0 0 0 0 0 0 0 0 0 0 0 0 0 0 0 0 0 0
0 0 0 0 0 0 0 0 0 0 0 0 0 0 0 0 0 0 0 0 0 0 0 0 0 0 0 0 0 0 0 0 0 0 0 0 0 0 0 0 0 0 0 0
0 0 0 0 0 0 0 0 0 0 0 0 0 0 0 0 0 0 0 0 0 0 0 0 0 0 0 0 0 0 0 0 0 0 0 0 0 0 0 0 0 0 0 0
0 0 0 0 0 0 0 0 0 0 0 0 0 0 0 0 0 0 0 0 0 0 0 0 0 0 0 0 0 0 0 0 0 0 0 0 0 0 0 0 0 0 0 0
0 0 0 0 0 0 0 0 0 0 0 0 0 0 0 0 0 0 0 0 0 0 0 0 0 0 0 0 0 0 0 0 0 0 0 0 0 0 0 0 0 0 0 0
0 0 0 0 0 0 0 0 0 0 0 0 0 0 0 0 0 0 0 0 0 0 0 0 0 0 0 0 0 0 0 0 0 0 0 0 0 0 0 0 0 0 0 0
0 0 0 0 0 0 0 0 0 0 0 0 0 0 0 0 0 0 0 0 0 0 0 0 0 0 0 0 0 0 0 0 0 0 0 0 0 0 0 0 0 0 0 0
0 0 0 0 0 0 0 0 0 0 0 0 0 0 0 0 0 0 0 0 0 0 0 0 0 0 0 0 0 0 0 0 0 0 0 0 0 0 0 0 0 0 0 0
0 0 0 0 0 0 0 0 0 0 0 0 0 0 0 0 0 0 0 0 0 0 0 0 0 0 0 0 0 0 0 0 0 0 0 0 0 0 0 0 0 0 0 0
0 0 0 0 0 0 0 0 0 0 0 0 0 0 0 0 0 0 0 0 0 0 0 0 0 0 0 0 0 0 0 0 0 0 0 0 0 0 0 0 0 0 0 0
0 0 0 0 0 0 0 0 0 0 0 0 0 0 0 0 0 0 0 0 0 0 0 0 0 0 0 0 0 0 0 0 0 0 0 0 0 0 0 0 0 0 0 0
0 0 0 0 0 0 0 0 0 0 0 0 0 0 0 0 0 0 0 0 0 0 0 0 0 0 0 0 0 0 0 0 0 0 0 0 0 0 0 0 0 0 0 0
0 0 0 0 0 0 0 0 0 0 0 0 0 0 0 0 0 0 0 0 0 0 0 0 0 0 0 0 0 0 0 0 0 0 0 0 0 0 0 0 0 0 0 0
0 0 0 0 0 0 0 0 0 0 0 0 0 0 0 0 0 0 0 0 0 0 0 0 0 0 0 0 0 0 0 0 0 0 0 0 0 0 0 0 0 0 0 0
0 0 0 0 0 0 0 0 0 0 0 0 0 0 0 0 0 0 0 0 0 0 0 0 0 0 0 0 0 0 0 0 0 0 0 0 0 0 0 0 0 0 0 0
0 0 0 0 0 0 0 0 0 0 0 0 0 0 0 0 0 0 0 0 0 0 0 0 0 0 0 0 0 0 0 0 0 0 0 0 0 0 0 0 0 0 0 0
0 0 0 0 0 0 0 0 0 0 0 0 0 0 0 0 0 0 0 0 0 0 0 0 0 0 0 0 0 0 0 0 0 0 0 0 0 0 0 0 0 0 0 0
0 0 0 0 0 0 0 0 0 0 0 0 0 0 0 0 0 0 0 0 0 0 0 0 0 0 0 0 0 0 0 0 0 0 0 0 0 0 0 0 0 0 0 0
0 0 0 0 0 0 0 0 0 0 0 0 0 0 0 0 0 0 0 0 0 0 0 0 0 0 0 0 0 0 0 0 0 0 0 0 0 0 0 0 0 0 0 0
0 0 0 0 0 0 0 0 0 0 0 0 0 0 0 0 0 0 0 0 0 0 0 0 0 0 0 0 0 0 0 0 0 0 0 0 0 0 0 0 0 0 0 0
0 0 0 0 0 0 0 0 0 0 0 0 0 0 0 0 0 0 0 0 0 0 0 0 0 0 0 0 0 0 0 0 0 0 0 0 0 0 0 0 0 0 0 0
0 0 0 0 0 0 0 0 0 0 0 0 0 0 0 0 0 0 0 0 0 0 0 0 0 0 0 0 0 0 0 0 0 0 0 0 0 0 0 0 0 0 0 0
0 0 0 0 0 0 0 0 0 0 0 0 0 0 0 0 0 0 0 0 0 0 0 0 0 0 0 0 0 0 0 0 0 0 0 0 0 0 0 0 0 0 0 0
Wind_Speed
6 6 4 7 8 9 10 10 9 9 8 11 7 4 2 1 0 1 1 1 1 2 2 2 2 3 3 3 3 3 3 3 4 3 3 2 2 2 2 3 3 3 3 2
6 5 5 9 11 12 12 11 12 12 14 10 6 2 1 1 0 1 1 1 1 1 2 2 2 2 2 2 2 2 3 3 2 2 2 2 2 2 2 2 2 2 3 3
5 2 4 11 11 14 10 10 10 13 12 6 4 2 2 2 1 2 2 2 2 2 2 2 2 2 3 2 2 2 2 2 2 1 2 2 2 3 3 3 2 3 3 3
3 1 9 9 2 8 9 8 10 9 7 4 4 2 1 1 1 2 2 2 2 2 2 1 1 1 1 2 3 3 2 2 2 2 2 2 2 3 3 2 3 3 3 3
3 5 11 7 3 5 7 7 8 11 9 6 3 2 3 2 2 3 3 2 2 1 1 0 0 1 1 2 2 2 3 3 2 3 3 3 3 4 3 3 3 3 3 3
5 5 9 5 2 2 3 5 4 5 5 3 0 2 4 2 2 2 2 1 1 1 0 0 0 1 2 2 3 4 4 3 3 3 3 4 4 3 2 3 3 2 2 2
8 8 11 5 2 4 4 5 1 1 2 1 3 5 3 3 2 2 2 1 1 0 0 0 1 1 2 3 4 3 2 2 3 3 3 3 3 2 2 2 2 2 2 2
6 8 12 3 5 6 5 0 1 1 1 2 4 4 4 3 3 2 3 3 2 1 1 1 1 1 3 4 3 1 1 2 2 2 2 2 2 2 2 3 3 3 2 2
10 11 3 7 6 3 1 1 1 2 3 3 4 5 5 4 4 3 2 2 2 1 2 1 1 2 4 3 0 1 1 2 2 2 2 2 2 3 2 3 3 3 3 3
6 9 4 3 3 3 2 2 3 3 3 3 5 6 6 5 4 3 3 3 2 2 2 3 2 2 3 2 0 2 3 3 2 2 2 2 2 3 3 3 4 4 4 4
8 7 6 5 4 5 4 4 4 5 4 4 5 7 6 5 4 3 3 3 2 2 3 4 2 2 2 1 2 2 3 2 2 2 3 3 3 3 4 4 4 4 4 3
9 5 4 5 3 3 3 5 5 5 6 5 4 6 6 5 4 3 3 3 3 3 4 4 3 3 2 2 2 3 3 3 3 3 3 3 3 3 4 4 4 5 5 4
7 5 5 6 4 3 4 6 5 4 5 6 5 5 5 5 4 4 4 3 4 4 4 3 3 3 3 2 3 4 4 4 3 3 3 3 3 3 3 3 4 5 6 6
5 4 6 5 6 5 5 5 4 4 4 4 5 4 4 4 4 4 5 5 4 4 4 4 4 4 3 2 3 4 3 4 4 3 3 4 4 4 3 3 3 3 4 6
6 5 7 6 5 5 4 4 4 5 5 5 4 4 4 5 5 6 5 4 3 4 4 4 4 4 2 3 4 4 4 3 3 3 3 3 3 3 3 3 3 3 2 3
5 5 5 6 7 6 5 4 5 6 6 6 5 5 5 5 6 6 4 3 3 5 5 4 5 4 2 3 3 3 3 3 3 3 3 3 3 3 3 3 3 3 3 3
4 6 5 6 7 7 5 5 5 6 6 6 6 6 5 5 5 5 5 4 4 4 4 4 4 3 2 3 3 3 3 3 4 3 3 4 4 4 4 4 4 4 4 4
5 6 5 5 5 6 6 5 5 5 5 6 6 5 4 4 6 6 5 4 4 4 4 3 3 2 2 2 3 2 3 3 3 4 3 3 4 4 4 4 4 4 3 4
3 4 4 4 4 4 4 5 5 5 5 4 4 5 5 5 5 5 4 3 4 5 5 3 3 2 2 3 3 2 2 3 3 3 3 3 3 3 3 4 4 4 3 3
3 3 3 3 3 3 4 4 5 5 4 4 4 4 5 5 4 4 3 4 4 4 4 3 3 2 2 3 2 2 3 3 3 3 3 3 3 3 3 4 4 3 4 4
3 2 2 3 3 3 3 4 4 5 5 4 3 4 5 5 4 3 3 5 4 3 3 3 2 2 2 2 2 2 3 3 3 3 3 3 3 3 4 4 4 4 4 4
2 2 2 2 3 3 3 3 3 4 4 4 3 4 4 5 4 4 3 3 4 4 3 2 2 3 3 2 2 2 2 2 2 2 3 3 3 4 4 4 4 4 4 4
2 2 2 2 3 3 4 3 3 3 3 4 4 4 4 4 4 3 5 3 3 4 4 3 4 4 3 2 2 2 2 3 3 3 3 3 3 4 4 4 4 4 4 4
2 2 2 2 2 2 3 4 3 3 3 3 3 4 3 3 3 2 3 5 5 5 4 4 5 4 3 2 2 2 2 3 3 3 3 3 3 3 3 3 3 3 4 4
2 2 2 2 2 2 3 4 3 3 3 3 3 3 3 2 3 4 4 4 5 5 4 4 4 4 2 2 2 2 3 3 3 3 3 3 3 3 3 3 3 3 3 4
2 2 2 2 2 2 3 3 3 3 3 3 4 3 3 3 3 3 3 3 4 4 4 3 2 2 2 2 2 3 3 3 3 3 3 3 3 3 3 3 4 3 3 4
2 2 2 2 2 2 2 2 3 3 3 3 4 4 4 3 3 3 4 3 3 3 3 3 2 2 2 2 3 3 2 2 2 3 3 3 3 3 3 4 3 3 3 4
Wind_Direction
266 278 259 247 234 215 216 221 228 246 252 264 272 276 275 270 224 164 164 184 203 202 211 210 199 198 191 193 185 182 183 193 204 201 192 183 188 191 193 194 195 185 184 193
275 260 261 265 247 227 229 234 245 262 269 268 274 276 276 265 221 234 247 246 262 246 225 221 214 207 199 197 185 178 188 197 193 186 183 187 192 191 192 198 194 184 192 194
267 292 312 268 232 211 216 216 213 235 247 271 286 275 263 255 232 247 261 270 258 255 241 233 216 204 201 189 163 169 189 188 182 188 194 198 191 187 197 204 195 200 204 203
262 321 248 248 196 193 210 231 223 240 261 266 268 284 270 239 227 258 277 273 257 254 257 260 230 205 185 157 158 169 182 190 190 200 212 210 200 203 209 211 211 214 216 213
210 248 270 277 232 188 200 250 231 236 256 270 294 335 291 253 220 234 245 254 259 258 252 253 220 193 154 168 162 176 203 208 208 208 210 210 214 215 212 209 217 220 217 216
209 226 245 256 190 147 136 271 261 222 249 270 64 247 274 319 289 270 274 275 295 324 17 196 252 135 164 188 189 214 224 224 215 209 214 219 224 218 209 209 218 216 228 224
219 235 258 262 180 129 172 246 327 180 235 212 210 234 284 328 330 321 329 332 0 2 265 247 92 141 194 206 222 238 245 228 216 214 223 229 229 217 206 204 203 215 230 237
196 223 250 192 140 180 214 355 39 10 315 256 254 275 299 310 310 321 333 342 355 333 311 353 101 172 219 231 246 242 219 225 225 222 223 224 222 222 206 196 202 214 222 236
199 218 242 161 189 217 31 342 331 323 309 294 284 280 286 295 298 303 308 313 331 318 304 318 291 219 233 254 269 194 218 232 237 236 228 221 213 215 207 202 209 218 216 231
250 258 266 238 270 300 302 274 290 294 297 293 281 284 284 286 291 300 302 299 311 311 293 290 292 274 261 281 211 198 220 232 226 220 228 228 227 216 213 213 217 221 221 228
255 276 303 286 262 274 285 284 287 288 283 278 280 284 285 284 282 284 293 297 289 265 264 273 282 282 288 265 193 212 224 222 220 218 220 224 228 226 224 225 217 222 226 222
241 241 236 271 296 301 286 289 288 294 299 295 284 284 289 287 290 293 292 296 289 278 271 271 266 268 273 244 203 200 213 217 215 216 218 221 228 250 242 240 242 237 236 235
252 274 256 274 301 315 288 285 288 285 289 301 306 297 293 295 303 303 296 290 277 272 270 269 263 262 260 231 207 204 212 216 216 216 218 220 221 223 247 258 248 248 247 245
263 289 283 279 283 294 290 296 303 307 303 299 304 308 302 297 302 294 286 282 281 280 275 266 258 259 253 224 213 217 217 213 213 217 218 219 221 221 221 226 244 258 256 250
258 249 254 280 296 304 309 315 314 308 312 314 317 312 310 302 295 291 292 296 294 282 274 268 264 269 252 217 216 218 216 215 214 216 220 221 220 221 220 223 234 248 270 262
273 271 273 279 284 292 304 306 298 299 305 307 310 307 301 293 291 293 295 286 272 273 273 269 267 272 240 220 221 224 224 222 213 215 216 216 212 215 219 224 231 234 237 239
263 272 278 281 283 289 289 287 287 292 301 299 298 302 302 302 300 296 294 286 271 273 276 270 274 276 243 227 222 228 225 220 211 213 218 216 211 215 219 222 228 234 239 233
237 249 259 267 278 287 295 299 296 295 293 294 300 302 298 293 288 291 295 300 300 296 291 284 278 268 248 239 235 233 220 214 214 219 221 221 221 221 220 224 229 235 244 238
260 267 283 295 297 297 299 302 305 303 305 309 306 299 294 289 288 292 300 301 292 290 295 296 296 286 259 252 253 234 224 221 221 223 221 220 223 225 225 228 233 235 235 236
285 294 299 308 316 309 306 315 318 313 313 314 309 305 304 303 303 301 297 284 274 279 289 289 276 262 256 249 253 243 232 227 226 223 219 220 225 228 231 233 234 235 236 237
299 310 315 313 316 324 316 312 313 309 313 316 307 298 298 302 305 300 294 295 301 308 302 290 282 276 266 263 248 245 239 237 234 228 225 227 230 232 233 235 235 237 238 242
294 297 301 310 313 313 317 318 308 304 309 310 308 306 307 307 309 304 285 280 302 312 310 295 290 284 288 276 254 250 251 253 251 244 236 231 231 234 237 238 241 244 245 246
301 302 311 309 300 301 313 318 311 307 306 306 307 304 299 298 300 299 303 310 316 313 313 299 302 302 295 273 260 253 252 251 251 249 247 240 237 237 241 244 247 248 250 252
326 325 316 313 321 322 320 322 321 311 302 299 298 297 299 305 308 302 299 308 315 314 310 302 303 304 304 287 268 258 254 254 254 253 253 253 249 246 246 249 253 255 256 257
326 326 327 328 324 310 308 317 323 326 327 320 318 316 309 296 289 300 307 307 314 320 313 305 305 306 298 280 268 263 261 258 258 259 256 256 253 252 253 253 255 259 260 261
334 325 311 306 306 310 313 316 317 320 324 321 320 321 322 319 312 311 313 314 318 316 311 304 300 297 292 286 281 276 272 268 266 265 262 261 255 253 254 256 257 259 261 264
354 346 334 333 336 328 320 317 313 312 313 308 309 313 320 323 325 326 323 321 323 322 320 319 316 307 297 292 289 285 282 280 276 274 271 264 257 256 259 260 263 263 264 263